Newport, VT

8:26 AM EDT on August 20, 2017 (GMT -0400)
Newport State

Weather History for KEFK - March, 2013

Change the Weather History Date:

Friday, March 29, 2013

  Actual Average Record
Temperature  
Mean Temperature 38 °F -  
Max Temperature 42 °F 47 °F 79 °F (1946)
Min Temperature 32 °F 25 °F -12 °F (1974)
Degree Days  
Heating Degree Days 28    
Moisture  
Dew Point 30 °F    
Average Humidity 73    
Maximum Humidity 90    
Minimum Humidity 51    
Precipitation  
Precipitation 0.00 in - - ()
Sea Level Pressure  
Sea Level Pressure 30.02 in    
Wind  
Wind Speed 3 mph (West)    
Max Wind Speed 12 mph    
Max Gust Speed 17 mph    
Visibility 10 miles    
Events Rain    
Averages and records for this station are not official NWS values.
T = Trace of Precipitation, MM = Missing Value Source: NWS Daily Summary

Daily Weather History Graph

Daily Weather History Graph

Search for Another Location

Airport or City:

Trip Planner

Search our weather history database for the weather conditions in past years. The results will help you decide how hot, cold, wet, or windy it might be!

Date:

Astronomy

Mar. 29, 2013 Rise Set
Actual Time 6:34 AM EDT 7:13 PM EDT
Civil Twilight 6:05 AM EDT 7:42 PM EDT
Nautical Twilight 5:30 AM EDT 8:17 PM EDT
Astronomical Twilight 4:54 AM EDT 8:54 PM EDT
Moon 10:18 PM EDT (3/29) 7:34 AM EDT (3/29)
Length of Visible Light 13h 37m
Length of Day
12h 38m
Waning Gibbous, 93% of the Moon is Illuminated
Mar 29
Waning Gibbous
Apr 3
Last Quarter
Apr 10
New
Apr 18
First Quarter
Apr 25
Full

Hourly Weather History & Observations

Time (EDT) Temp. Windchill Dew Point Humidity Pressure Visibility Wind Dir Wind Speed Gust Speed Precip Events Conditions
12:15 AM 37.2 °F 34.7 °F 30.6 °F 77% 30.01 in 10.0 mi SSE 3.5 mph - N/A   Overcast
12:55 AM 38.5 °F - 31.1 °F 75% 30.01 in 10.0 mi Calm Calm - N/A   Overcast
1:15 AM 37.6 °F - 31.3 °F 78% 30.02 in 10.0 mi Calm Calm - N/A Rain Light Rain
1:35 AM 37.8 °F 34.2 °F 31.8 °F 79% 30.02 in 10.0 mi SW 4.6 mph - N/A Rain Light Rain
1:55 AM 37.9 °F 35.5 °F 32.0 °F 79% 30.02 in 10.0 mi SSW 3.5 mph - N/A   Overcast
2:15 AM 38.1 °F 34.6 °F 32.0 °F 79% 30.01 in 10.0 mi SSW 4.6 mph - N/A   Overcast
2:35 AM 37.9 °F 35.5 °F 32.0 °F 79% 30.01 in 10.0 mi SSW 3.5 mph - N/A   Overcast
2:55 AM 37.8 °F - 32.0 °F 80% 30.01 in 10.0 mi Calm Calm - N/A   Overcast
3:15 AM 37.0 °F - 32.0 °F 82% 30.01 in 10.0 mi Calm Calm - N/A   Overcast
3:35 AM 36.7 °F 32.9 °F 32.2 °F 84% 30.01 in 10.0 mi SW 4.6 mph - N/A   Overcast
3:55 AM 37.0 °F - 32.0 °F 82% 30.01 in 10.0 mi Calm Calm - N/A   Overcast
4:15 AM 37.2 °F - 32.0 °F 81% 30.01 in 10.0 mi Calm Calm - N/A   Overcast
4:55 AM 36.7 °F - 32.0 °F 83% 30.01 in 10.0 mi Calm Calm - N/A   Overcast
5:15 AM 36.0 °F - 31.8 °F 85% 30.01 in 10.0 mi Calm Calm - N/A   Overcast
5:55 AM 36.5 °F - 31.8 °F 83% 30.01 in 10.0 mi Calm Calm - N/A   Overcast
6:15 AM 37.4 °F - 31.8 °F 80% 30.02 in 10.0 mi Calm Calm - N/A   Drizzle
6:35 AM 36.5 °F - 31.6 °F 83% 30.02 in 10.0 mi Calm Calm - N/A   Overcast
6:55 AM 36.9 °F - 31.8 °F 82% 30.02 in 10.0 mi Calm Calm - N/A   Overcast
7:15 AM 36.7 °F - 31.8 °F 83% 30.03 in 10.0 mi Calm Calm - N/A   Overcast
7:35 AM 36.7 °F - 31.8 °F 83% 30.03 in 10.0 mi Calm Calm - N/A   Overcast
7:55 AM 37.4 °F - 31.8 °F 80% 30.04 in 10.0 mi Calm Calm - N/A   Overcast
8:15 AM 37.8 °F - 31.6 °F 79% 30.04 in 10.0 mi Calm Calm - N/A   Overcast
8:35 AM 37.0 °F 32.4 °F 31.3 °F 80% 30.03 in 10.0 mi WNW 5.8 mph - N/A Rain Light Rain
8:55 AM 36.5 °F 32.7 °F 31.8 °F 83% 30.04 in 5.0 mi West 4.6 mph - N/A Rain Light Rain
9:15 AM 36.1 °F - 32.0 °F 85% 30.04 in 10.0 mi Calm Calm - N/A Rain Light Rain
9:35 AM 36.9 °F - 32.4 °F 84% 30.04 in 10.0 mi Calm Calm - N/A   Overcast
9:55 AM 37.4 °F 33.8 °F 32.9 °F 84% 30.03 in 10.0 mi WSW 4.6 mph - N/A   Overcast
10:15 AM 37.8 °F 32.5 °F 33.3 °F 84% 30.04 in 10.0 mi WSW 6.9 mph - N/A   Overcast
10:35 AM 38.5 °F 35.0 °F 33.4 °F 82% 30.04 in 10.0 mi WSW 4.6 mph - N/A   Overcast
10:55 AM 39.4 °F 36.1 °F 32.4 °F 76% 30.04 in 10.0 mi WSW 4.6 mph - N/A   Overcast
11:15 AM 39.9 °F 37.8 °F 31.8 °F 73% 30.04 in 10.0 mi NW 3.5 mph - N/A   Overcast
11:35 AM 40.1 °F 36.1 °F 31.1 °F 70% 30.04 in 10.0 mi NNW 5.8 mph - N/A   Mostly Cloudy
11:55 AM 41.0 °F 35.8 °F 30.6 °F 66% 30.03 in 10.0 mi NW 8.1 mph - N/A   Overcast
12:15 PM 41.2 °F 35.5 °F 28.6 °F 61% 30.03 in 10.0 mi WNW 9.2 mph - N/A   Overcast
12:35 PM 41.2 °F 35.5 °F 28.4 °F 60% 30.03 in 10.0 mi WNW 9.2 mph - N/A   Overcast
12:55 PM 41.9 °F 37.5 °F 29.1 °F 61% 30.02 in 10.0 mi West 6.9 mph - N/A   Mostly Cloudy
1:15 PM 41.9 °F 36.9 °F 28.4 °F 59% 30.02 in 10.0 mi WNW 8.1 mph - N/A   Overcast
1:35 PM 41.9 °F 36.9 °F 27.0 °F 55% 30.01 in 10.0 mi WNW 8.1 mph - N/A   Overcast
1:55 PM 42.1 °F 36.6 °F 26.6 °F 54% 30.01 in 10.0 mi NW 9.2 mph - N/A   Overcast
2:15 PM 42.1 °F 37.1 °F 25.9 °F 53% 30.00 in 10.0 mi WNW 8.1 mph - N/A   Overcast
2:35 PM 41.9 °F 37.5 °F 26.2 °F 54% 30.00 in 10.0 mi NW 6.9 mph - N/A   Overcast
2:55 PM 42.3 °F 37.9 °F 25.7 °F 52% 30.00 in 10.0 mi NW 6.9 mph - N/A   Overcast
3:15 PM 42.8 °F 37.5 °F 25.9 °F 51% 30.00 in 10.0 mi WNW 9.2 mph - N/A   Overcast
3:35 PM 41.7 °F 36.1 °F 25.7 °F 53% 30.00 in 10.0 mi WNW 9.2 mph 16.1 mph N/A   Overcast
3:55 PM 41.9 °F 36.3 °F 25.9 °F 53% 29.99 in 10.0 mi WNW 9.2 mph 17.3 mph N/A   Overcast
4:15 PM 41.4 °F 36.8 °F 26.2 °F 55% 29.99 in 10.0 mi NW 6.9 mph - N/A   Overcast
4:35 PM 41.9 °F 35.4 °F 26.4 °F 54% 29.99 in 10.0 mi WNW 11.5 mph - N/A   Overcast
4:55 PM 41.9 °F 36.9 °F 26.4 °F 54% 29.99 in 10.0 mi WNW 8.1 mph - N/A   Overcast
5:15 PM 41.0 °F 35.8 °F 26.4 °F 56% 29.99 in 10.0 mi WNW 8.1 mph 17.3 mph N/A   Overcast
5:35 PM 40.5 °F 35.1 °F 27.3 °F 59% 30.00 in 10.0 mi West 8.1 mph - N/A   Overcast
5:55 PM 40.5 °F 35.8 °F 27.5 °F 60% 30.00 in 10.0 mi West 6.9 mph - N/A   Overcast
6:15 PM 40.1 °F 36.1 °F 27.7 °F 61% 30.01 in 10.0 mi WNW 5.8 mph - N/A   Overcast
6:35 PM 39.0 °F 36.8 °F 28.2 °F 65% 30.01 in 10.0 mi WNW 3.5 mph - N/A   Light Drizzle
6:55 PM 39.2 °F 35.0 °F 27.5 °F 63% 30.01 in 10.0 mi West 5.8 mph - N/A   Overcast
7:15 PM 39.2 °F 34.2 °F 28.2 °F 65% 30.01 in 10.0 mi West 6.9 mph - N/A   Light Drizzle
7:35 PM 39.2 °F 33.6 °F 28.4 °F 65% 30.02 in 10.0 mi West 8.1 mph - N/A   Overcast
7:55 PM 38.5 °F 34.1 °F 29.1 °F 69% 30.02 in 10.0 mi West 5.8 mph - N/A Rain Light Rain
8:15 PM 37.8 °F 34.2 °F 30.0 °F 74% 30.03 in 10.0 mi WNW 4.6 mph - N/A Rain Light Rain
8:35 PM 37.4 °F 34.9 °F 30.2 °F 75% 30.03 in 10.0 mi WNW 3.5 mph - N/A   Light Drizzle
8:55 PM 36.9 °F 31.4 °F 30.7 °F 79% 30.04 in 10.0 mi WNW 6.9 mph - N/A   Drizzle
9:15 PM 36.5 °F 33.9 °F 31.1 °F 81% 30.04 in 10.0 mi West 3.5 mph - N/A Rain Light Rain
9:35 PM 36.0 °F 33.3 °F 31.5 °F 84% 30.05 in 10.0 mi SW 3.5 mph - N/A   Light Drizzle
9:55 PM 35.1 °F 31.0 °F 31.8 °F 88% 30.04 in 10.0 mi SW 4.6 mph - N/A   Light Drizzle
10:15 PM 34.5 °F - 31.3 °F 88% 30.04 in 10.0 mi Calm Calm - N/A   Overcast
10:35 PM 34.0 °F 31.0 °F 31.1 °F 89% 30.04 in 10.0 mi SE 3.5 mph - N/A   Overcast
10:55 PM 33.8 °F 30.8 °F 31.1 °F 90% 30.04 in 10.0 mi SSW 3.5 mph - N/A   Overcast
11:15 PM 34.7 °F - 31.5 °F 88% 30.04 in 10.0 mi Calm Calm - N/A   Mostly Cloudy
11:35 PM 34.0 °F - 31.1 °F 89% 30.04 in 10.0 mi Calm Calm - N/A   Scattered Clouds
11:55 PM 32.0 °F 28.7 °F 29.3 °F 90% 30.03 in 10.0 mi SSE 3.5 mph - N/A   Scattered Clouds